Location: *
(51.2167°N, 10.0667°E)
Time: 05:04:00
(UTC+00:00)

Lacrosse 4 Rocket - Pass Details

Date: 12 December 2019
Orbit: 540 x 619 km, 68.0° (Epoch: 25 January)

Event Time Altitude Azimuth Distance (km) Brightness Sun altitude
Rises 17:17:23 0° 329° (NNW) 2,744 5.1 -18.4°
Reaches altitude 10° 17:20:23 10° 352° (N) 1,861 3.9 -18.9°
Enters shadow 17:21:30 13° 7° (N) 1,653 3.5 -19.0°
